Regional Weather Roundup
Issued by NWS Little Rock, AR

Home | Current Version | Previous Version | Text Only | Print | Product List | Glossary On
Versions: 1 2 3 4 5 6 7 8 9 10 11 12 13 14 15 16 17 18 19 20 21 22 23 24 25 26 27 28 29 30 31 32 33 34 35 36 37 38 39 40 41 42 43 44 45 46 47 48 49 50
000
ASUS44 KLZK 191812
RWRLZK

WEATHER ROUNDUP FOR ARKANSAS
NATIONAL WEATHER SERVICE LITTLE ROCK AR
1200 PM CST SUN NOV 19 2017

NOTE: "FAIR" INDICATES FEW OR NO CLOUDS BELOW 12,000 FEET WITH NO
SIGNIFICANT WEATHER AND/OR OBSTRUCTIONS TO VISIBILITY.

ARZ001-003-010-029-191900-
NORTHWEST ARKANSAS

CITY           SKY/WX    TMP DP  RH WIND       PRES   REMARKS
FAYETTEVILLE   SUNNY     50  27  40 VRB3      30.30F
6HR MIN TEMP:  26; 6HR MAX TEMP:  50;

FORT SMITH     SUNNY     55  27  34 NW8       30.32F
6HR MIN TEMP:  35; 6HR MAX TEMP:  55;

HARRISON       SUNNY     49  23  36 NW9G17    30.27F
6HR MIN TEMP:  33; 6HR MAX TEMP:  49;

BENTONVILLE    SUNNY     48  27  44 N5        30.32F
6HR MIN TEMP:  31; 6HR MAX TEMP:  48;

ROGERS         SUNNY     46  25  43 VRB5      30.30F
6HR MIN TEMP:  32; 6HR MAX TEMP:  47;

SILOAM SPGS    SUNNY     49  27  42 N5        30.31F
6HR MIN TEMP:  29; 6HR MAX TEMP:  49;

HIGHFILL       SUNNY     48  27  44 CALM      30.30F
6HR MIN TEMP:  30; 6HR MAX TEMP:  49;

SPRINGDALE     SUNNY     48  25  40 N5        30.31F
$$

ARZ004-005-016-191900-
NORTH CENTRAL ARKANSAS

CITY           SKY/WX    TMP DP  RH WIND       PRES   REMARKS
BATESVILLE     SUNNY     52  20  28 NW13      30.26F
6HR MIN TEMP:  38; 6HR MAX TEMP:  52;

FLIPPIN        SUNNY     49  22  34 NW12      30.29F
6HR MIN TEMP:  36; 6HR MAX TEMP:  49;

MTN HOME       SUNNY     48  23  37 N9G18     30.26F
6HR MIN TEMP:  35; 6HR MAX TEMP:  49;

$$

ARZ040-041-191900-
WEST CENTRAL ARKANSAS

CITY           SKY/WX    TMP DP  RH WIND       PRES   REMARKS
MENA           SUNNY     57  25  28 NE5       30.31F
$$

ARZ009-017-025-026-028-191900-
NORTHEAST ARKANSAS

CITY           SKY/WX    TMP DP  RH WIND       PRES   REMARKS
CORNING        FAIR      46  21  36 NW9G16    30.24F
JONESBORO      SUNNY     48  24  39 NW12G20   30.25F
6HR MIN TEMP:  38; 6HR MAX TEMP:  48;

NEWPORT        SUNNY     51  21  30 NW16G26   30.26F
6HR MIN TEMP:  38; 6HR MAX TEMP:  51;

WALNUT RIDGE     N/A     49  20  31 MISG        N/A
6HR MIN TEMP:  34; 6HR MAX TEMP:  49;

BLYTHEVILLE    SUNNY     48  28  46 N13G20    30.25F
6HR MIN TEMP:  34; 6HR MAX TEMP:  49;

$$

ARZ022-023-033-042-044-191900-
CENTRAL ARKANSAS

CITY           SKY/WX    TMP DP  RH WIND       PRES   REMARKS
LITTLE ROCK    SUNNY     55  23  28 NW9G18    30.29F
6HR MIN TEMP:  37; 6HR MAX TEMP:  55;

N LITTLE ROCK    N/A     53  26  36 NW6       30.31F
6HR MIN TEMP:  40; 6HR MAX TEMP:  53;

JACKSONVILLE   SUNNY     55  22  28 NW13      30.27F
6HR MIN TEMP:  33; 6HR MAX TEMP:  55;

SEARCY         SUNNY     55  22  27 N8G16     30.27F
6HR MIN TEMP:  35; 6HR MAX TEMP:  55;

HOT SPRINGS    SUNNY     59  23  25 NW13G23   30.29F
6HR MIN TEMP:  34; 6HR MAX TEMP:  59;

RUSSELLVILLE   SUNNY     53  26  35 W7        30.29F
6HR MIN TEMP:  30; 6HR MAX TEMP:  54;

CLINTON        FAIR      52  19  28 N14G22    30.28F
$$

ARZ036-191900-
EAST ARKANSAS

CITY           SKY/WX    TMP DP  RH WIND       PRES   REMARKS
WEST MEMPHIS   SUNNY     49  23  36 N16G24    30.24F
6HR MIN TEMP:  38; 6HR MAX TEMP:  49;

$$

ARZ050-053-066-070-073-191900-
SOUTHWEST ARKANSAS

CITY           SKY/WX    TMP DP  RH WIND       PRES   REMARKS
ARKADELPHIA    FAIR      58  25  28 N12G18    30.30F
6HR MIN TEMP:  29; 6HR MAX TEMP:  59;

CAMDEN         SUNNY     61  25  25 VRB7      30.30F
TEXARKANA      SUNNY     58  28  32 N12       30.32F
6HR MIN TEMP:  38; 6HR MAX TEMP:  58;

EL DORADO      SUNNY     58  29  33 N9        30.30F
6HR MIN TEMP:  37; 6HR MAX TEMP:  58;

DE QUEEN       SUNNY     60  27  28 N8        30.30F
6HR MIN TEMP:  28; 6HR MAX TEMP:  60; 6HR PCP: TRACE;

$$

ARZ056-057-069-191900-
SOUTHEAST ARKANSAS

CITY           SKY/WX    TMP DP  RH WIND       PRES   REMARKS
PINE BLUFF     SUNNY     55  23  28 N12G22    30.28F
6HR MIN TEMP:  37; 6HR MAX TEMP:  56;

STUTTGART      SUNNY     55  24  30 N20       30.28F
6HR MIN TEMP:  38; 6HR MAX TEMP:  55;

MONTICELLO     SUNNY     57  23  26 NE8       30.28F
6HR MIN TEMP:  40; 6HR MAX TEMP:  57;


$$





USA.gov is the U.S. government's official web portal to all federal, state and local government web resources and services.